This demonstration page uses our WeatherBlox Daily Observations layout. Learn more.

Left ArrowRight Arrow

40.97296, -117.73568

Hourly Observations for March 4, 2016

Temp ( °F °C ) Dew Point ( °F °C ) Humidity (%) Winds ( mph kmh ) Pressure ( in mb ) Visibility ( mi km ) Precip ( " mm )
12:56 am 00:56 Clear 35 1.7 29 -1.7 78 78 S 7 11 30.03 1017 10 16 0.00 0.00
1:56 am 01:56 Clear 33 0.6 29 -1.7 85 85 SE 9 15 30.03 1017 10 16 0.00 0.00
2:56 am 02:56 Clear 31 -0.6 28 -2.2 89 89 VRB 3 6 30.02 1017 10 16 0.00 0.00
3:56 am 03:56 Clear 28 -2.2 26 -3.3 92 92 SSE 5 7 30.02 1017 10 16 0.00 0.00
4:56 am 04:56 Clear 34 1.1 28 -2.2 79 79 SE 6 9 30.02 1017 10 16 0.00 0.00
5:56 am 05:56 Clear 29 -1.7 26 -3.3 89 89 Calm 30.05 1018 10 16 0.00 0.00
6:56 am 06:56 Sunny 29 -1.7 25 -3.9 85 85 SSE 3 6 30.07 1018 10 16 0.00 0.00
7:56 am 07:56 Sunny 39 3.9 31 -0.6 73 73 Calm 30.06 1018 10 16 0.00 0.00
8:56 am 08:56 Sunny 47 8.3 34 1.1 61 61 Calm 30.06 1018 10 16 0.00 0.00
9:56 am 09:56 Sunny 51 10.6 36 2.2 56 56 Calm 30.05 1018 10 16 0.00 0.00
10:56 am 10:56 Sunny 53 11.7 35 1.7 51 51 VRB 3 6 30.04 1017 10 16 0.00 0.00
11:56 am 11:56 Sunny 57 13.9 34 1.1 42 42 Calm 30.02 1017 10 16 0.00 0.00
12:56 pm 12:56 Sunny 59 15 34 1.1 39 39 VRB 3 6 29.97 1015 10 16 0.00 0.00
1:56 pm 13:56 Sunny 62 16.7 35 1.7 37 37 S 6 9 29.93 1014 10 16 0.00 0.00
2:56 pm 14:56 Sunny 63 17.2 35 1.7 35 35 SE 10 17 29.90 1013 10 16 0.00 0.00
3:56 pm 15:56 Sunny 61 16.1 36 2.2 39 39 NW 5 7 29.89 1012 10 16 0.00 0.00
4:56 pm 16:56 Sunny 59 15 37 2.8 44 44 WNW 5 7 29.87 1011 10 16 0.00 0.00
5:56 pm 17:56 Clear 54 12.2 36 2.2 51 51 ENE 7 11 29.88 1012 10 16 0.00 0.00
6:56 pm 18:56 Mostly Cloudy 52 11.1 37 2.8 57 57 E 3 6 29.88 1012 10 16 0.00 0.00
7:56 pm 19:56 Cloudy 51 10.6 37 2.8 59 59 NW 5 7 29.86 1011 10 16 0.00 0.00
8:56 pm 20:56 Cloudy 48 8.9 40 4.4 74 74 W 13 20 29.87 1011 10 16 0.00 0.00
9:56 pm 21:56 Mostly Cloudy 48 8.9 38 3.3 68 68 NNW 5 7 29.85 1011 10 16 0.00 0.00
10:56 pm 22:56 Partly Cloudy 47 8.3 38 3.3 71 71 SSW 8 13 29.84 1011 10 16 0.00 0.00
11:56 pm 23:56 Partly Cloudy 50 10 38 3.3 63 63 SW 9 15 29.83 1010 10 16 0.00 0.00

Powered by AerisWeather